This is the latest recevied weather packets stored in our database for station/object KJ5FA-10. If no packets are shown the sender has not sent any weather packets the latest 1 day(s).
| Time | Temp. | Humidity | Pressure | Rain* | Wind** | Luminosity | Snow |
|---|---|---|---|---|---|---|---|
| 1778120725 | 11.11° C | 96% | 1017.4 hPa | 0 mm | - | - | - |
| 1778119826 | 11.11° C | 96% | 1017.5 hPa | 0 mm | - | - | - |
| 1778118925 | 11.11° C | 96% | 1017.7 hPa | 0 mm | - | - | - |
| 1778118026 | 11.11° C | 96% | 1017.7 hPa | 0 mm | - | - | - |
| 1778117126 | 11.67° C | 94% | 1017.1 hPa | 0 mm | - | - | - |
| 1778086466 | 11.67° C | 83% | 1017.5 hPa | 0 mm | - | - | - |
| 1778084666 | 11.67° C | 82% | 1017.5 hPa | 0 mm | - | - | - |
| 1778082866 | 11.11° C | 86% | 1017.1 hPa | 0 mm | - | - | - |
| 1778081066 | 10.56° C | 89% | 1017.3 hPa | 0 mm | - | - | - |
| 1778079266 | 10° C | 92% | 1017.2 hPa | 0 mm | - | - | - |
| 1778077466 | 10° C | 94% | 1016.9 hPa | 0 mm | - | - | - |
| 1778076566 | 10° C | 96% | 1016.6 hPa | 0 mm | - | - | - |
| 1778074766 | 10° C | 96% | 1017.2 hPa | 0 mm | - | - | - |
| 1778073866 | 10° C | 96% | 1016 hPa | 0 mm | - | - | - |
| 1778072066 | 10° C | 97% | 1016.1 hPa | 0.25 mm | - | - | - |
| 1778071166 | 10.56° C | 97% | 1015.5 hPa | 0.25 mm | - | - | - |
| 1778068466 | 10.56° C | 96% | 1014.3 hPa | 0.25 mm | - | - | - |
| 1778066666 | 10.56° C | 96% | 1013.6 hPa | 0 mm | - | - | - |
| 1778065766 | 10.56° C | 96% | 1013.6 hPa | 0 mm | - | - | - |
| 1778064866 | 10.56° C | 96% | 1013.3 hPa | 0 mm | - | - | - |
| 1778062167 | 11.11° C | 97% | 1012.8 hPa | 0 mm | - | - | - |
| 1778061266 | 11.11° C | 97% | 1012.6 hPa | 0 mm | - | - | - |
| 1778060366 | 11.11° C | 97% | 1012.4 hPa | 0 mm | - | - | - |
| 1778059466 | 11.11° C | 97% | 1012.7 hPa | 8.89 mm | - | - | - |
| 1778056766 | 11.67° C | 97% | 1011.3 hPa | 13.21 mm | - | - | - |
* Rain latest hour (hover to see other rain measurements)
** Current wind speed in m/s (hover to see current wind gust speed)